OBJECT AS, 61775

Orbit data source: Space-Track

You're viewing an Uncataloged Satellite

Recently launched and/or uncataloged satellites may have evolving metadata. Metadata may include but not limited to: Owner, Maufacturer, Bus, Motor, and Mission.

OBJECT AS, 61775 is a satellite in SSO that was launched on Mon, 04 Nov 2024 UTC via a SOYUZ-2-1B launch vehicle from the Vostochny Cosmodrome (VOSTO). Unknown objects in Earth's orbit typically refer to objects detected orbiting the Earth but have not yet been identified or cataloged. These objects could be anything from previously untracked satellites, spent rocket stages, debris from satellite collisions, or even natural meteoroids temporarily captured by Earth's gravity.

Loading next visibility...
Identifier
61775, 2024-199AS
Orbit
SSO
Country
Flag of TBDTBD
Related business
None
Manufacturer
Unknown
Mission
Operational Amateur Technology
Bus & Motor
Unknown
Mass
Unknown
Launch date (UTC)
2024-11-04 (1 year ago)
Launch vehicle
SOYUZ-2-1B
Launch site
Vostochny Cosmodrome (VOSTO)
Object type
Unknown
Shape & HBR
Box, 0.2 m
Radar Cross Section
0.100 m², Small (<0.1 m²)

Expand to show TLE details & history
Last TLE update: 16 hours ago

TLE from 16 hours ago
0 OBJECT AS
1 61775U 24199AS  25296.94368153  .00017974  00000-0  51491-3 0  9995
2 61775  97.3303 164.1867 0019811  55.8405 304.4714 15.35775655 97809
Epoch: 2025-10-23T22:38Z
TLE epoch observation values (Epoch: 2025-10-23T22:38:54.084Z)
Latitude
0.00001°
Longitude
151.86567°
Altitude
454.082 km
Speed
7.644 km/s
True Right ascension
10h 56m 44s
True Declination
0° 00' 00"
Sunlit
Object was in daylight at epoch
Visualization orbit readout
Latitude
Unknown
Longitude
Unknown
Altitude
Unknown
Speed
Unknown
Apparent Right ascension
Unknown
Apparent Declination
Unknown
Sunlit
N/A
Visualization observer readout
Local Sidereal Time
10:10:25
Azimuth
Unknown
Elevation
Unknown
Doppler factor
Unknown
Orbital elements
Apogee altitude
469.097 km
Perigee altitude
442.021 km
Semi-major axis
6,833.696 km
Eccentricity
0.00198
Inclination
97.3303°
RAAN
164.1867°
Arg. of periapsis
55.8405°
True anomaly
304.28398°
Mean anomaly
304.4714°
Eccentric anomaly
304.37772°
Mean motion
3.84202 °/min
Orbital period
93.7 mins
BSTAR
0.00051491
Loading maneuver chart data...
Computing Atmospheric mass density...
Loading historical data...
Loading historical data...
Loading historical data...
Loading historical data...
Loading historical data...
Loading historical data...
Loading historical data...

Documentation

Showing up to 5 results
|